Regional Weather Roundup
Issued by NWS

Home | Current Version | Previous Version | Graphics & Text | Print | Product List | Glossary On
Versions: 1 2 3 4 5 6 7 8 9 10 11 12 13 14 15 16 17 18 19 20 21 22 23 24 25 26 27
000
ASUS45 KBOU 262107
RWRCO

WEATHER ROUNDUP FOR COLORADO
NATIONAL WEATHER SERVICE DENVER/BOULDER CO
300 PM MDT TUE JUL 26 2016

NOTE: "FAIR" INDICATES FEW OR NO CLOUDS BELOW 12000 FEET WITH NO
SIGNIFICANT WEATHER AND/OR OBSTRUCTIONS TO VISIBILITY.

COZ001>005-013-030-031-262200-
...NORTHWEST COLORADO...

CITY           SKY/WX    TMP DP  RH WIND       PRES   REMARKS
CRAIG          FAIR      87  25  10 NW10      30.19F
HAYDEN         FAIR      86  30  13 W14G21    30.22F
MEEKER         CLOUDY    80  39  23 CALM      30.26R
MOUNT WERNER   NOT AVBL
STEAMBOAT SPGS FAIR      86  33  14 CALM      30.24S
WALDEN         PTSUNNY   72  34  25 E9G20     30.36F
$$

COZ006>008-011-262200-
...WEST CENTRAL VALLEYS...

CITY           SKY/WX    TMP DP  RH WIND       PRES   REMARKS
GRAND JUNCTION FAIR      97  39  13 CALM      30.08F
MONTROSE       FAIR      90  41  18 CALM      30.20F
EAGLE          MOSUNNY   84  37  18 W17       30.27
RIFLE          FAIR      92  32  12 NW25G33   30.16S
DELTA          FAIR      92  42  18 S7        30.14F
NUCLA          FAIR     N/A N/A N/A S6        30.23F
$$

COZ017>023-064>068-262200-
...SOUTHWEST COLORADO...

CITY           SKY/WX    TMP DP  RH WIND       PRES   REMARKS
DURANGO        FAIR      87  44  22 NW10      30.23F
CORTEZ         FAIR      90  45  21 NW6       30.18F
PAGOSA SPRINGS CLOUDY    64  47  54 N16       30.39R
TELLURIDE      FAIR      72  36  27 SE8       30.49F
WOLF CREEK PAS LGT RAIN  43  43 100 NE21      30.73F
$$

COZ009-010-012-014-032>034-037-058>063-262200-
...CENTRAL COLORADO...

CITY           SKY/WX    TMP DP  RH WIND       PRES   REMARKS
ASPEN          PTSUNNY   76  39  26 SE9G18    30.36F
BUENA VISTA    PTSUNNY   78  32  18 W6        30.38F
COPPER MTN     CLOUDY    61  25  25 SE7       30.73F
BERTHOUD PASS  CLOUDY    54  37  54 MISG      30.75F
COTTONWOOD PAS PTSUNNY   72  32  23 CALM      30.55F
GUNNISON       FAIR      79  39  24 N8        30.38F
KREMMLING      FAIR      73  32  21 NW5       30.33R
LEADVILLE      PTSUNNY   65  27  23 W9        30.54F
MONARCH PASS   CLOUDY    59  32  36 E18       30.80F
SALIDA         PTSUNNY   81  33  17 SW6       30.42S
SUNLIGHT       PTSUNNY   72  34  25 MISG      30.64F
WILKERSON PASS FAIR      59  36  41 NE6       30.71S
$$

COZ069>075-262200-
...SAN LUIS VALLEY/SANGRE DE CRISTO MOUNTAINS...

CITY           SKY/WX    TMP DP  RH WIND       PRES   REMARKS
ALAMOSA        FAIR      75  45  34 W17       30.32F
LA VETA PASS   CLOUDY    66  34  30 CALM      30.54F
SAGUACHE       CLOUDY    73  39  29 NE3       30.37S
$$

COZ035-036-038>040-262200-
...NORTHERN COLORADO FRONT RANGE...

CITY           SKY/WX    TMP DP  RH WIND       PRES   REMARKS
DENVER INTL AP PTSUNNY   91  37  15 E7        30.13F
DMNS CITY PARK   N/A     88  38  17 SW8       30.12F
AURORA         PTSUNNY   89  35  14 W7        30.16F
FRONT RANGE AP PTSUNNY   91  43  18 NW9G18    30.15F
ERIE MUNI ARPT FAIR      92  32  12 SE10G17   30.10F
BOULDER MUN AP FAIR      90  37  15 SE6       30.11S
CENTENNIAL     CLOUDY    88  31  13 SW12      30.18F
BROOMFIELD     CLOUDY    91  37  15 SE14      30.16F
LONGMONT       FAIR      91  45  20 NE9       30.13R
$$

COZ041-046-047-076>085-087-088-262200-
...PIKES PEAK/PALMER DIVIDE AND SOUTHERN FOOTHILLS...

CITY           SKY/WX    TMP DP  RH WIND       PRES   REMARKS
COLO. SPRINGS  PTSUNNY   85  33  15 NW17G29   30.23F
A. F. ACADEMY  MOSUNNY   82  38  20 NW7       30.26S
SCHRIEVER AFB  NOT AVBL
ELLICOTT       FAIR     N/A N/A N/A N23G36    30.21R
FALCON         NOT AVBL
FORT CARSON    FAIR      86  44  23 NW16G25   30.18S
LIMON          NOT AVBL
MONUMENT HILL  FAIR      73  41  31 SE14G24   30.32F
TRINIDAD       NOT AVBL
$$

COZ042>045-048>051-090-091-262200-
...NORTHEAST COLORADO...

CITY           SKY/WX    TMP DP  RH WIND       PRES   REMARKS
GREELEY ARPT   FAIR      84  57  39 NW8       30.08F
AKRON          FAIR      89  54  30 NW5       30.06F
BURLINGTON     FAIR      90  60  36 S18G24    30.07F
WRAY           FAIR      93  59  31 SE15G21   30.02F
STERLING       FAIR      91  55  29 S7        30.01F
HOLYOKE        FAIR      95  68  41 W13       30.02F
FORT MORGAN    FAIR      92  48  21 E3        30.06F
$$

COZ086-089-092>099-262200-
...SOUTHEAST COLORADO...

CITY           SKY/WX    TMP DP  RH WIND       PRES   REMARKS
PUEBLO         FAIR      93  46  19 CALM      30.07F
LA JUNTA       FAIR      95  56  26 NE9       30.04F
LAMAR          FAIR      96  58  27 SE16G23   30.00F
SPRINGFIELD      N/A     94  52  24 SE10G21   30.06F
$$




USA.gov is the U.S. government's official web portal to all federal, state and local government web resources and services.